This demonstration page uses our WeatherBlox Daily Observations layout. Learn more.

41.86663, -103.66717

Hourly Observations for June 1, 2019

Temp ( °F °C ) Dew Point ( °F °C ) Humidity (%) Winds ( mph kmh ) Pressure ( in mb ) Visibility ( mi km ) Precip ( " mm )
12:53 am 00:53 Clear 57 13.9 50 10 78 78 N 5 7 29.98 1015 10 16.0934 0 0
1:53 am 01:53 Mostly Clear 57 13.9 48 8.9 72 72 NNE 8 13 29.96 1015 10 16.0934 0 0
2:53 am 02:53 Clear 51 10.6 47 8.3 86 86 W 6 9 29.98 1015 10 16.0934 0 0
3:53 am 03:53 Clear 50 10 47 8.3 89 89 Calm 29.98 1015 10 16.0934 0 0
4:53 am 04:53 Clear 51 10.6 47 8.3 86 86 undefined N/A 29.98 1015 10 16.0934 0 0
5:53 am 05:53 Sunny 49 9.4 47 8.3 93 93 Calm 30.01 1016 10 16.0934 0 0
6:53 am 06:53 Sunny 56 13.3 51 10.6 84 84 Calm 30 1016 10 16.0934 0 0
7:53 am 07:53 Sunny 59 15 53 11.7 81 81 Calm 30.02 1017 10 16.0934 0 0
8:53 am 08:53 Sunny 62 16.7 50 10 65 65 VRB 3 6 30.03 1017 10 16.0934 0 0
9:53 am 09:53 Sunny 64 17.8 51 10.6 63 63 VRB 3 6 30.03 1017 10 16.0934 0 0
10:53 am 10:53 Sunny 67 19.4 53 11.7 61 61 SSE 3 6 30.01 1016 10 16.0934 0 0
11:53 am 11:53 Sunny 70 21.1 53 11.7 55 55 SE 6 9 30 1016 10 16.0934 0 0
12:53 pm 12:53 Sunny 72 22.2 52 11.1 50 50 VRB 3 6 29.98 1015 10 16.0934 0 0
1:53 pm 13:53 Sunny 73 22.8 54 12.2 51 51 VRB 5 7 29.96 1014 10 16.0934 0 0
2:53 pm 14:53 Sunny 74 23.3 53 11.7 48 48 SSE 7 11 29.95 1014 10 16.0934 0 0
3:53 pm 15:53 Sunny 73 22.8 53 11.7 50 50 E 6 9 29.93 1014 10 16.0934 0 0
4:53 pm 16:53 Sunny 74 23.3 54 12.2 50 50 ESE 8 13 29.93 1013 10 16.0934 0 0
5:53 pm 17:53 Sunny 73 22.8 54 12.2 51 51 SSE 10 17 29.94 1014 10 16.0934 0 0
6:53 pm 18:53 Sunny 72 22.2 53 11.7 52 52 ESE 10 17 29.9 1013 10 16.0934 0 0
7:53 pm 19:53 Sunny 70 21.1 52 11.1 53 53 SE 10 17 29.89 1012 10 16.0934 0 0
8:53 pm 20:53 Clear 62 16.7 52 11.1 70 70 SSE 7 11 29.92 1013 10 16.0934 0 0
9:53 pm 21:53 Clear 60 15.6 50 10 70 70 ESE 5 7 29.94 1014 10 16.0934 0 0
10:53 pm 22:53 Clear 55 12.8 50 10 83 83 E 6 9 29.95 1014 10 16.0934 0 0
11:53 pm 23:53 Clear 55 12.8 51 10.6 87 87 E 7 11 29.94 1014 10 16.0934 0 0

Powered by AerisWeather